Wind_Speed
13 12 11 11 10 14 12 12 11 7 10 9 7 6 6 7 11 12 11 8 4 2 3 5 4 5 9 12 9 11 14 14 15 17 17 20 23 22 23 26 27 24 25
9 10 10 10 12 12 9 10 6 6 10 7 4 3 6 7 10 10 11 7 3 2 3 5 8 10 10 11 12 13 12 13 14 14 15 19 19 20 21 22 22 28 26
10 11 12 11 10 9 10 7 4 4 6 5 1 3 6 7 9 8 7 5 2 5 6 6 8 7 10 13 16 13 14 13 10 13 13 18 22 19 21 21 20 26 22
10 12 7 5 8 10 9 6 5 4 6 3 2 4 4 7 6 6 5 3 2 3 3 7 6 8 11 17 17 16 13 14 12 15 13 22 24 24 26 21 22 22 20
11 10 9 11 10 8 6 5 5 5 3 4 3 1 4 7 5 2 4 4 1 3 6 4 7 11 12 20 17 16 18 18 16 16 19 23 17 20 24 26 21 21 19
12 11 10 6 5 4 3 3 5 5 3 6 5 2 3 7 6 2 4 3 5 12 11 12 10 12 13 19 22 20 18 16 15 17 18 19 20 20 24 24 17 17 14
11 7 4 5 3 3 2 2 4 6 4 6 7 4 5 4 5 4 6 7 10 10 10 7 7 11 14 18 20 19 17 16 18 21 23 24 18 20 17 21 13 22 20
6 4 7 5 2 4 4 3 5 7 5 6 8 6 5 6 4 5 4 10 11 11 15 16 13 13 16 18 18 18 17 17 19 23 25 23 25 18 24 25 26 22 20
3 4 3 4 3 1 1 1 7 9 9 10 10 7 3 13 10 10 12 13 13 14 17 17 19 21 20 20 16 16 18 17 21 26 25 25 30 34 31 25 24 22 21
4 5 6 4 5 3 2 1 6 11 12 13 12 8 6 15 16 14 11 13 17 16 20 21 24 28 32 29 25 20 19 19 22 26 30 32 32 29 26 27 28 25 23
5 5 5 7 7 5 4 4 9 15 14 15 14 9 15 16 14 12 12 12 15 20 21 22 24 23 26 27 26 24 24 23 24 25 26 27 25 24 24 24 23 21 18
7 5 7 8 8 6 6 7 12 16 15 17 15 12 16 12 14 12 13 14 13 13 15 19 20 19 20 20 21 23 24 23 22 24 26 27 28 26 24 21 17 14 13
5 4 7 8 10 8 9 9 11 13 15 19 17 12 10 9 9 11 12 12 13 10 13 15 17 18 16 15 17 18 19 22 23 24 26 25 23 21 19 16 14 12 10
6 6 8 9 11 12 11 11 11 14 15 16 15 11 12 10 9 8 13 13 13 11 11 15 17 16 18 18 16 13 15 21 24 23 21 20 18 16 14 13 12 11 8
7 8 10 11 11 13 15 16 14 16 14 13 13 13 12 10 10 12 15 17 14 14 15 17 16 16 16 16 15 16 16 16 17 16 15 16 15 13 12 11 8 6 2
7 9 10 12 12 13 15 19 20 19 18 15 13 13 15 14 15 16 15 14 15 15 13 13 13 15 16 17 17 16 14 12 11 11 11 9 9 9 8 6 5 5 5
6 9 11 12 14 17 19 20 19 20 21 18 18 18 18 18 19 20 19 17 15 15 14 13 13 13 13 12 12 12 12 11 11 9 8 8 8 8 6 6 5 8 10
10 9 11 12 15 17 16 15 16 16 17 15 16 17 17 17 17 17 17 16 15 14 12 11 10 10 10 11 12 12 11 9 8 7 7 7 7 7 8 9 10 11 12
15 14 13 14 16 17 15 14 12 11 12 11 11 13 14 14 13 12 11 10 10 10 9 10 10 12 14 15 14 12 9 7 5 5 5 6 7 9 9 9 11 12 13
13 14 14 14 15 16 17 15 13 11 8 7 6 6 7 8 9 9 8 7 7 6 6 6 8 11 14 15 14 12 8 6 4 4 5 7 7 8 9 9 11 13 15
13 12 13 16 17 17 17 17 16 16 14 12 9 6 4 4 3 3 3 3 3 4 5 5 5 6 12 13 14 12 8 5 4 4 6 7 8 11 12 12 15 16 17
15 14 14 14 13 16 19 19 19 18 17 17 16 15 13 10 8 7 6 6 6 5 3 3 3 6 7 10 12 13 13 12 11 12 11 12 12 13 14 16 18 19 21
17 16 15 13 15 15 14 15 18 20 21 21 20 19 18 17 17 16 15 15 13 12 12 12 11 11 11 13 15 16 16 17 18 17 16 17 18 19 20 20 21 22 22
24 22 20 18 17 16 14 14 15 16 17 17 19 20 21 21 21 20 20 20 19 18 17 16 16 17 18 18 19 19 21 23 23 23 24 24 24 25 24 23 23 23 23
30 28 26 25 23 22 22 21 20 18 18 18 19 19 19 19 20 21 22 22 23 24 23 23 23 24 24 24 24 25 26 27 28 29 30 30 29 29 29 29 29 29 28
34 31 30 29 30 29 28 26 26 25 24 24 23 22 22 23 23 23 23 22 23 24 25 27 28 29 29 30 29 29 30 30 30 32 33 33 30 29 30 31 32 32 30
Wind_Direction
278 280 287 292 296 298 287 289 283 293 316 309 294 299 313 304 312 321 320 323 312 329 59 177 176 162 173 181 172 170 183 183 190 201 198 195 190 196 201 202 204 191 188
292 298 296 300 303 298 284 283 279 318 329 304 291 322 329 313 315 333 335 323 288 236 167 146 178 185 184 174 172 171 171 192 183 185 185 196 192 194 191 196 196 181 180
303 308 299 295 291 278 286 276 279 294 319 267 255 341 332 325 329 335 319 302 274 219 222 193 172 156 154 154 156 161 164 161 159 173 175 188 185 178 178 171 172 167 180
319 313 305 288 279 282 280 274 268 272 297 231 224 334 348 339 329 351 352 281 248 228 208 167 172 173 179 167 164 162 155 147 128 156 150 161 178 171 163 174 177 172 168
313 305 307 301 294 283 267 268 246 243 276 187 185 358 22 4 352 40 30 40 108 139 123 142 176 156 157 163 167 165 155 149 141 142 148 155 163 169 174 176 177 187 191
318 316 314 325 324 279 261 244 219 224 202 184 180 148 4 23 36 344 16 57 111 119 124 110 126 173 171 173 169 165 167 168 161 161 162 164 172 165 169 167 183 209 198
326 322 349 357 9 122 154 203 217 194 167 179 188 165 31 93 88 74 72 128 135 121 110 106 150 175 183 182 180 173 175 168 156 165 171 171 174 164 165 170 174 158 152
345 34 44 42 130 139 127 147 179 179 173 168 171 137 41 126 98 117 93 138 126 117 108 116 121 138 157 150 148 151 155 155 148 154 143 154 152 157 146 147 142 145 147
54 39 46 59 87 66 337 239 192 179 185 165 160 138 44 119 114 120 131 119 115 117 123 109 97 105 127 136 138 155 163 163 162 156 149 145 137 136 137 137 137 140 139
88 59 39 28 28 21 88 134 168 169 174 162 150 132 105 109 124 120 113 107 108 121 125 114 112 103 102 100 107 112 120 130 142 145 143 141 140 142 143 139 137 139 140
76 57 47 36 32 82 76 89 144 155 158 155 143 126 109 113 124 134 123 106 110 120 124 123 128 119 111 111 117 126 133 135 135 134 137 137 137 135 137 142 144 145 144
64 49 57 46 52 83 86 96 136 153 153 152 146 129 106 105 111 120 142 135 141 131 128 140 138 142 128 125 131 135 134 136 138 138 137 135 137 140 144 144 146 142 134
79 74 79 70 73 95 91 94 120 144 152 153 151 139 119 119 127 124 138 152 128 138 149 154 148 148 151 148 137 142 144 144 142 142 140 142 145 146 147 152 149 140 128
102 108 111 103 85 93 89 90 117 125 139 152 160 154 146 146 147 144 133 134 138 134 135 150 150 152 153 152 146 141 153 150 144 143 146 151 152 156 155 156 148 135 125
102 118 121 119 106 103 95 96 112 131 133 146 156 156 158 159 140 129 131 134 132 131 127 131 135 140 145 147 144 142 147 148 146 152 161 163 161 159 157 157 150 140 146
115 125 124 122 118 116 111 105 105 107 107 112 126 142 149 146 139 139 137 132 137 141 143 141 146 150 149 146 143 143 147 154 160 165 167 165 161 158 167 179 204 219 250
135 133 131 127 131 128 121 110 106 104 102 101 103 110 114 117 119 120 125 126 123 125 128 131 136 140 144 145 146 150 160 174 180 179 174 168 169 191 209 222 239 262 277
158 147 142 137 143 145 134 123 114 105 102 106 110 110 110 112 115 118 121 125 129 132 136 144 154 158 160 154 148 152 158 165 158 163 177 191 204 225 240 246 256 270 279
174 169 162 155 153 159 155 147 136 123 112 106 114 117 117 121 125 125 123 120 122 132 144 157 160 153 150 152 153 151 150 158 171 189 207 224 234 240 250 265 276 281 285
196 184 179 176 172 169 170 172 167 162 159 146 130 118 121 125 132 136 134 136 141 149 155 157 174 185 181 175 177 179 179 178 189 210 231 241 244 242 246 260 266 270 275
212 215 205 195 194 193 190 189 188 186 190 199 205 206 192 148 130 120 132 142 163 191 198 196 178 179 195 190 192 195 200 228 259 285 304 304 296 286 287 290 288 285 286
196 206 217 221 218 214 210 209 211 214 210 210 216 224 231 237 235 236 239 240 229 220 234 236 235 231 219 219 222 234 252 265 265 270 282 291 291 290 289 283 279 283 289
202 196 199 209 221 226 230 228 223 222 224 228 228 228 231 238 244 243 242 242 244 244 233 232 235 235 234 237 242 250 257 261 262 267 273 278 284 289 290 291 288 288 288
217 216 215 214 216 219 225 237 244 248 247 242 236 235 235 235 240 246 249 250 249 246 243 242 246 247 247 247 248 249 251 255 260 263 264 267 270 271 271 272 273 275 277
218 223 229 228 229 231 229 227 229 236 244 250 254 254 251 246 242 241 243 247 249 249 248 247 246 249 252 253 257 260 260 260 262 265 268 271 273 276 278 279 281 280 278
216 222 228 232 234 237 240 242 243 242 240 238 241 248 258 264 261 258 256 255 253 252 252 252 251 253 254 257 260 262 261 259 261 264 267 272 277 281 285 288 287 286 284
Height
5710 5709 5709 5708 5707 5706 5704 5703 5703 5702 5700 5698 5696 5694 5693 5692 5690 5689 5686 5684 5682 5682 5680 5681 5681 5682 5683 5685 5688 5690 5694 5696 5700 5704 5709 5713 5717 5721 5725 5730 5735 5741 5745
5706 5705 5705 5704 5702 5701 5700 5699 5699 5698 5697 5695 5694 5693 5691 5690 5689 5687 5685 5683 5682 5681 5681 5681 5681 5682 5684 5687 5689 5691 5694 5696 5700 5704 5708 5712 5715 5719 5723 5729 5734 5738 5743
5703 5702 5701 5700 5698 5698 5697 5697 5696 5696 5695 5694 5693 5691 5690 5689 5687 5685 5683 5682 5681 5680 5681 5681 5682 5684 5685 5688 5689 5691 5693 5697 5700 5704 5707 5710 5714 5718 5723 5728 5729 5739 5745
5701 5699 5698 5697 5695 5695 5695 5694 5694 5693 5693 5692 5692 5691 5690 5688 5686 5685 5683 5681 5680 5680 5680 5681 5682 5683 5686 5688 5689 5692 5695 5698 5701 5704 5707 5711 5714 5719 5725 5730 5735 5741 5746
5699 5698 5696 5695 5694 5693 5692 5692 5692 5692 5691 5690 5691 5690 5690 5688 5686 5685 5684 5682 5680 5680 5680 5681 5682 5683 5685 5687 5690 5692 5696 5699 5702 5706 5710 5713 5718 5721 5726 5731 5736 5741 5745
5697 5695 5694 5692 5691 5690 5690 5690 5690 5690 5689 5690 5691 5691 5690 5688 5687 5686 5684 5683 5682 5682 5682 5684 5683 5684 5687 5688 5690 5693 5697 5700 5703 5706 5711 5715 5720 5724 5727 5733 5738 5741 5746
5696 5694 5692 5691 5690 5690 5689 5689 5689 5689 5689 5690 5691 5691 5690 5689 5688 5687 5686 5686 5686 5685 5684 5685 5685 5685 5686 5688 5692 5695 5697 5701 5705 5707 5710 5715 5719 5725 5729 5735 5739 5742 5747
5695 5694 5693 5691 5691 5690 5689 5688 5688 5688 5689 5690 5691 5692 5691 5691 5690 5689 5689 5688 5687 5687 5687 5687 5687 5686 5687 5689 5693 5698 5701 5703 5707 5711 5712 5717 5721 5727 5730 5737 5742 5745 5749
5696 5695 5693 5692 5691 5690 5688 5687 5687 5688 5689 5690 5692 5693 5692 5692 5692 5692 5692 5691 5691 5691 5692 5693 5692 5690 5690 5692 5696 5701 5705 5707 5710 5713 5717 5720 5724 5729 5735 5740 5744 5748 5752
5697 5695 5694 5692 5690 5689 5688 5686 5687 5687 5689 5691 5693 5694 5694 5694 5696 5697 5695 5695 5695 5695 5697 5698 5701 5699 5698 5700 5703 5706 5709 5713 5716 5719 5722 5725 5730 5734 5738 5740 5745 5749 5753
5696 5696 5696 5693 5691 5690 5689 5688 5687 5688 5690 5692 5695 5696 5696 5698 5700 5700 5700 5700 5700 5701 5703 5704 5707 5709 5709 5709 5711 5714 5718 5721 5723 5726 5729 5733 5736 5740 5743 5746 5749 5752 5756
5696 5697 5696 5694 5692 5692 5691 5690 5690 5690 5692 5694 5697 5699 5699 5701 5702 5703 5704 5705 5706 5708 5710 5711 5713 5715 5717 5719 5720 5721 5723 5725 5728 5731 5734 5738 5741 5743 5746 5750 5753 5757 5759
5698 5699 5698 5697 5695 5695 5694 5693 5692 5692 5694 5696 5699 5702 5703 5704 5705 5706 5707 5708 5709 5711 5713 5714 5716 5719 5722 5724 5726 5728 5729 5731 5734 5737 5739 5742 5745 5747 5750 5753 5755 5759 5761
5699 5700 5700 5700 5699 5698 5697 5696 5696 5696 5697 5699 5702 5704 5705 5707 5708 5709 5710 5711 5714 5714 5715 5717 5720 5721 5724 5727 5730 5732 5734 5735 5738 5742 5744 5746 5749 5752 5754 5756 5758 5760 5761
5700 5701 5702 5702 5702 5702 5701 5700 5700 5700 5701 5703 5704 5705 5708 5709 5710 5711 5713 5715 5717 5718 5720 5721 5724 5726 5729 5732 5734 5736 5739 5741 5743 5746 5747 5749 5751 5753 5755 5757 5759 5760 5761
5702 5703 5703 5704 5704 5705 5706 5705 5706 5706 5706 5707 5708 5708 5709 5711 5713 5714 5716 5718 5720 5722 5724 5726 5728 5730 5732 5735 5738 5741 5743 5745 5747 5748 5750 5751 5753 5754 5756 5758 5759 5760 5761
5703 5705 5706 5706 5707 5708 5710 5710 5712 5712 5711 5713 5714 5715 5715 5716 5717 5718 5720 5722 5724 5726 5728 5730 5732 5735 5737 5739 5742 5743 5744 5746 5748 5750 5751 5753 5754 5755 5757 5758 5759 5759 5760
5702 5705 5708 5709 5710 5711 5712 5714 5715 5716 5717 5719 5719 5720 5721 5722 5723 5724 5725 5726 5728 5729 5731 5733 5736 5737 5739 5741 5743 5745 5746 5748 5749 5751 5753 5754 5755 5756 5757 5757 5758 5758 5757
5701 5704 5707 5709 5711 5713 5714 5716 5718 5720 5721 5723 5724 5725 5726 5727 5728 5729 5730 5731 5732 5733 5734 5735 5737 5739 5740 5743 5745 5746 5748 5750 5750 5751 5753 5754 5755 5755 5756 5756 5755 5755 5755
5701 5703 5706 5709 5711 5713 5715 5717 5719 5721 5723 5724 5726 5728 5729 5730 5731 5732 5733 5734 5735 5736 5737 5737 5738 5739 5741 5743 5745 5746 5748 5750 5750 5751 5752 5752 5753 5753 5753 5753 5753 5752 5751
5702 5703 5705 5707 5709 5711 5713 5715 5717 5719 5722 5724 5726 5728 5729 5731 5732 5733 5734 5735 5735 5736 5737 5738 5739 5739 5741 5742 5744 5745 5746 5747 5748 5749 5749 5750 5750 5750 5749 5749 5749 5748 5746
5698 5701 5704 5706 5708 5710 5712 5714 5715 5717 5719 5721 5723 5726 5728 5729 5731 5733 5733 5734 5735 5736 5736 5736 5737 5738 5740 5741 5743 5744 5745 5745 5745 5745 5746 5746 5746 5745 5745 5744 5743 5741 5740
5694 5697 5700 5703 5706 5707 5710 5711 5713 5715 5716 5717 5719 5721 5724 5726 5728 5729 5730 5732 5733 5734 5735 5735 5735 5736 5737 5737 5738 5739 5740 5740 5740 5740 5740 5740 5740 5739 5739 5738 5737 5736 5735
5689 5693 5696 5699 5702 5704 5706 5709 5711 5712 5714 5715 5717 5718 5719 5720 5722 5724 5726 5727 5729 5730 5731 5732 5732 5733 5733 5733 5733 5734 5734 5733 5733 5733 5733 5733 5733 5733 5733 5732 5730 5729 5727
5682 5686 5690 5693 5696 5698 5701 5703 5704 5707 5708 5710 5712 5713 5714 5716 5717 5717 5718 5720 5721 5723 5725 5726 5727 5727 5727 5727 5728 5727 5727 5727 5727 5726 5725 5725 5725 5725 5724 5723 5722 5720 5719
5673 5678 5681 5685 5689 5692 5695 5697 5699 5700 5702 5704 5706 5708 5709 5710 5712 5713 5713 5713 5714 5715 5716 5717 5719 5720 5720 5721 5721 5720 5720 5719 5719 5718 5717 5716 5716 5716 5714 5713 5712 5711 5710